QPF
0.00 0.00 0.00 0.00 0.00 0.00 0.00 0.00 0.00 0.00 0.00 0.00 0.00 0.00 0.00 0.00 0.00 0.01 0.02 0.01 0.02 0.01 0.02 0.06 0.10 0.07 0.06 0.11 0.08 0.06 0.06 0.07 0.06 0.04 0.03 0.03 0.02 0.01 0.01 0.00 0.00 0.00 0.00 0.00
0.00 0.00 0.00 0.00 0.00 0.00 0.00 0.00 0.00 0.00 0.00 0.00 0.00 0.00 0.00 0.00 0.00 0.01 0.02 0.02 0.07 0.08 0.06 0.12 0.11 0.07 0.06 0.10 0.13 0.10 0.07 0.06 0.05 0.04 0.03 0.02 0.01 0.01 0.00 0.00 0.00 0.00 0.00 0.00
0.00 0.00 0.00 0.00 0.00 0.00 0.00 0.00 0.00 0.00 0.00 0.00 0.00 0.00 0.00 0.00 0.00 0.01 0.01 0.01 0.03 0.09 0.17 0.16 0.14 0.14 0.11 0.10 0.10 0.08 0.06 0.05 0.05 0.04 0.03 0.02 0.01 0.00 0.00 0.00 0.00 0.00 0.00 0.00
0.00 0.00 0.00 0.00 0.00 0.00 0.00 0.00 0.00 0.00 0.00 0.00 0.00 0.00 0.00 0.00 0.02 0.08 0.10 0.07 0.15 0.15 0.12 0.13 0.14 0.16 0.17 0.21 0.19 0.14 0.09 0.07 0.06 0.06 0.05 0.04 0.02 0.01 0.00 0.00 0.00 0.00 0.00 0.00
0.00 0.00 0.00 0.00 0.00 0.00 0.00 0.00 0.00 0.00 0.00 0.00 0.00 0.00 0.00 0.00 0.02 0.08 0.08 0.14 0.22 0.14 0.08 0.13 0.18 0.15 0.14 0.22 0.22 0.21 0.12 0.08 0.06 0.06 0.06 0.06 0.03 0.01 0.00 0.00 0.00 0.00 0.00 0.00
0.00 0.00 0.00 0.00 0.00 0.00 0.00 0.00 0.00 0.00 0.01 0.01 0.02 0.02 0.01 0.00 0.02 0.05 0.05 0.08 0.09 0.07 0.07 0.10 0.10 0.11 0.16 0.20 0.16 0.13 0.09 0.08 0.07 0.07 0.07 0.06 0.05 0.03 0.02 0.01 0.01 0.00 0.00 0.00
0.01 0.00 0.00 0.00 0.00 0.00 0.00 0.00 0.01 0.03 0.09 0.11 0.07 0.04 0.03 0.02 0.02 0.01 0.02 0.03 0.05 0.06 0.07 0.11 0.09 0.08 0.09 0.10 0.06 0.06 0.10 0.14 0.11 0.08 0.08 0.08 0.07 0.05 0.04 0.04 0.02 0.02 0.01 0.00
0.02 0.02 0.01 0.00 0.00 0.00 0.00 0.00 0.00 0.01 0.03 0.03 0.02 0.03 0.04 0.03 0.01 0.00 0.01 0.01 0.03 0.05 0.06 0.08 0.09 0.08 0.07 0.05 0.05 0.05 0.06 0.08 0.09 0.08 0.09 0.09 0.09 0.07 0.06 0.08 0.05 0.04 0.02 0.01
0.01 0.01 0.00 0.00 0.00 0.00 0.00 0.00 0.00 0.00 0.00 0.00 0.01 0.03 0.05 0.08 0.06 0.02 0.01 0.00 0.01 0.03 0.04 0.05 0.06 0.07 0.06 0.05 0.05 0.05 0.06 0.06 0.07 0.07 0.07 0.07 0.08 0.09 0.09 0.09 0.08 0.06 0.05 0.03
0.00 0.00 0.00 0.00 0.00 0.00 0.00 0.00 0.00 0.00 0.00 0.00 0.01 0.06 0.11 0.17 0.16 0.05 0.01 0.00 0.00 0.01 0.01 0.02 0.03 0.04 0.05 0.04 0.04 0.04 0.04 0.04 0.04 0.04 0.05 0.05 0.05 0.05 0.07 0.07 0.08 0.08 0.06 0.05
0.00 0.00 0.00 0.00 0.01 0.01 0.01 0.00 0.00 0.00 0.00 0.00 0.01 0.06 0.06 0.09 0.07 0.02 0.01 0.00 0.00 0.00 0.00 0.01 0.01 0.02 0.02 0.02 0.03 0.03 0.03 0.03 0.02 0.02 0.03 0.02 0.03 0.03 0.04 0.05 0.06 0.07 0.07 0.07
0.00 0.00 0.00 0.00 0.01 0.01 0.00 0.00 0.00 0.00 0.00 0.00 0.02 0.06 0.04 0.04 0.04 0.02 0.01 0.00 0.00 0.00 0.00 0.00 0.00 0.00 0.00 0.01 0.01 0.01 0.01 0.01 0.01 0.01 0.01 0.01 0.01 0.01 0.02 0.03 0.03 0.05 0.06 0.07
0.00 0.00 0.00 0.02 0.03 0.01 0.00 0.00 0.00 0.00 0.00 0.01 0.05 0.12 0.07 0.04 0.04 0.03 0.01 0.00 0.00 0.00 0.00 0.00 0.00 0.00 0.00 0.00 0.00 0.00 0.01 0.01 0.01 0.01 0.01 0.01 0.00 0.00 0.01 0.01 0.02 0.02 0.04 0.05
0.00 0.00 0.00 0.00 0.00 0.00 0.00 0.00 0.00 0.00 0.02 0.02 0.04 0.14 0.10 0.05 0.02 0.01 0.00 0.00 0.00 0.00 0.00 0.00 0.00 0.00 0.00 0.00 0.00 0.00 0.00 0.00 0.00 0.00 0.00 0.00 0.00 0.00 0.00 0.01 0.01 0.01 0.02 0.03
0.00 0.00 0.00 0.00 0.00 0.00 0.00 0.00 0.00 0.00 0.00 0.05 0.04 0.09 0.06 0.02 0.00 0.00 0.00 0.00 0.00 0.00 0.00 0.00 0.00 0.00 0.00 0.00 0.00 0.00 0.00 0.00 0.00 0.00 0.00 0.00 0.00 0.01 0.01 0.01 0.01 0.01 0.01 0.02
0.00 0.00 0.00 0.00 0.00 0.00 0.00 0.00 0.00 0.00 0.00 0.00 0.01 0.03 0.01 0.00 0.00 0.00 0.00 0.00 0.00 0.00 0.00 0.00 0.00 0.00 0.00 0.00 0.00 0.00 0.00 0.00 0.00 0.01 0.01 0.01 0.01 0.01 0.01 0.01 0.01 0.01 0.01 0.02
0.00 0.00 0.00 0.00 0.00 0.01 0.04 0.01 0.00 0.00 0.00 0.00 0.01 0.01 0.00 0.00 0.00 0.00 0.00 0.00 0.00 0.00 0.00 0.00 0.00 0.00 0.00 0.00 0.00 0.00 0.00 0.00 0.00 0.00 0.00 0.00 0.01 0.01 0.01 0.01 0.01 0.02 0.02 0.02
0.00 0.00 0.00 0.00 0.00 0.04 0.04 0.01 0.00 0.00 0.00 0.00 0.00 0.00 0.00 0.00 0.00 0.00 0.00 0.00 0.00 0.00 0.00 0.00 0.00 0.00 0.00 0.00 0.00 0.00 0.00 0.00 0.00 0.00 0.00 0.00 0.00 0.00 0.01 0.01 0.02 0.03 0.04 0.04
0.00 0.00 0.00 0.00 0.00 0.04 0.02 0.00 0.00 0.00 0.00 0.00 0.00 0.00 0.00 0.00 0.00 0.00 0.00 0.00 0.00 0.00 0.00 0.00 0.00 0.00 0.00 0.00 0.00 0.00 0.00 0.00 0.00 0.00 0.00 0.00 0.00 0.00 0.01 0.02 0.03 0.04 0.05 0.05
0.00 0.00 0.00 0.00 0.00 0.02 0.02 0.00 0.00 0.00 0.00 0.00 0.00 0.00 0.00 0.00 0.00 0.00 0.00 0.00 0.00 0.00 0.00 0.00 0.00 0.00 0.00 0.00 0.00 0.00 0.00 0.00 0.00 0.00 0.00 0.00 0.00 0.01 0.02 0.03 0.04 0.04 0.06 0.05
0.00 0.00 0.00 0.00 0.00 0.01 0.00 0.00 0.00 0.00 0.00 0.00 0.00 0.00 0.00 0.00 0.00 0.00 0.00 0.00 0.00 0.00 0.00 0.00 0.00 0.00 0.00 0.00 0.00 0.00 0.00 0.00 0.00 0.00 0.00 0.00 0.01 0.01 0.02 0.03 0.05 0.06 0.06 0.07
0.00 0.00 0.00 0.00 0.00 0.02 0.00 0.00 0.00 0.00 0.00 0.00 0.00 0.00 0.00 0.00 0.00 0.00 0.00 0.00 0.00 0.00 0.00 0.00 0.00 0.00 0.00 0.00 0.01 0.01 0.01 0.01 0.01 0.01 0.01 0.01 0.02 0.02 0.01 0.04 0.06 0.07 0.08 0.09
0.00 0.00 0.00 0.00 0.00 0.00 0.00 0.00 0.00 0.00 0.00 0.00 0.00 0.00 0.00 0.00 0.00 0.00 0.00 0.00 0.00 0.00 0.00 0.00 0.00 0.00 0.00 0.01 0.01 0.01 0.01 0.01 0.01 0.02 0.02 0.03 0.04 0.04 0.04 0.04 0.05 0.05 0.07 0.07
0.00 0.00 0.00 0.00 0.00 0.00 0.00 0.00 0.00 0.00 0.00 0.00 0.00 0.00 0.00 0.00 0.00 0.00 0.00 0.00 0.00 0.00 0.00 0.01 0.01 0.01 0.01 0.01 0.01 0.01 0.01 0.02 0.03 0.03 0.04 0.04 0.04 0.04 0.04 0.05 0.05 0.04 0.04 0.06
0.00 0.00 0.00 0.00 0.00 0.00 0.00 0.00 0.00 0.00 0.00 0.00 0.00 0.00 0.00 0.00 0.00 0.00 0.00 0.00 0.00 0.01 0.00 0.01 0.01 0.01 0.01 0.01 0.01 0.01 0.02 0.03 0.04 0.04 0.04 0.04 0.04 0.04 0.05 0.05 0.05 0.04 0.05 0.05
0.00 0.00 0.00 0.00 0.00 0.00 0.00 0.00 0.00 0.00 0.00 0.00 0.00 0.00 0.00 0.00 0.00 0.00 0.00 0.00 0.01 0.00 0.01 0.01 0.01 0.01 0.01 0.02 0.02 0.02 0.03 0.05 0.06 0.06 0.05 0.05 0.05 0.05 0.05 0.04 0.04 0.02 0.01 0.01
MSLP
1007.50 1007.82 1007.97 1007.94 1007.79 1007.56 1007.28 1006.99 1006.70 1006.40 1006.07 1005.69 1005.25 1004.75 1004.21 1003.66 1003.13 1002.66 1002.24 1001.90 1001.64 1001.46 1001.35 1001.34 1001.44 1001.66 1002.04 1002.57 1003.24 1004.02 1004.87 1005.71 1006.48 1007.15 1007.68 1008.08 1008.36 1008.56 1008.74 1008.94 1009.19 1009.50 1009.86 1010.25
1007.84 1008.03 1008.04 1007.91 1007.71 1007.48 1007.27 1007.12 1007.00 1006.88 1006.72 1006.47 1006.11 1005.63 1005.05 1004.41 1003.77 1003.17 1002.66 1002.26 1001.97 1001.81 1001.75 1001.79 1001.94 1002.19 1002.56 1003.04 1003.64 1004.32 1005.05 1005.79 1006.49 1007.09 1007.58 1007.95 1008.21 1008.40 1008.55 1008.72 1008.94 1009.22 1009.56 1009.93
1008.11 1008.17 1008.07 1007.88 1007.65 1007.47 1007.38 1007.39 1007.46 1007.55 1007.57 1007.48 1007.21 1006.77 1006.17 1005.48 1004.76 1004.09 1003.52 1003.10 1002.84 1002.72 1002.73 1002.85 1003.04 1003.30 1003.62 1004.02 1004.48 1005.00 1005.56 1006.13 1006.68 1007.16 1007.56 1007.86 1008.07 1008.22 1008.33 1008.46 1008.64 1008.89 1009.20 1009.56
1008.27 1008.23 1008.06 1007.84 1007.65 1007.56 1007.61 1007.80 1008.08 1008.38 1008.59 1008.64 1008.47 1008.08 1007.49 1006.77 1006.01 1005.30 1004.72 1004.32 1004.10 1004.05 1004.14 1004.33 1004.56 1004.81 1005.08 1005.36 1005.65 1005.97 1006.32 1006.68 1007.03 1007.36 1007.63 1007.84 1007.98 1008.08 1008.16 1008.25 1008.39 1008.59 1008.87 1009.20
1008.34 1008.22 1008.02 1007.80 1007.67 1007.69 1007.90 1008.28 1008.77 1009.26 1009.65 1009.84 1009.78 1009.44 1008.87 1008.14 1007.36 1006.65 1006.07 1005.70 1005.54 1005.57 1005.74 1005.99 1006.25 1006.50 1006.70 1006.85 1006.98 1007.10 1007.23 1007.37 1007.53 1007.69 1007.83 1007.94 1008.01 1008.06 1008.10 1008.15 1008.24 1008.40 1008.63 1008.92
1008.34 1008.17 1007.95 1007.76 1007.70 1007.84 1008.20 1008.75 1009.41 1010.08 1010.62 1010.94 1010.96 1010.68 1010.15 1009.43 1008.66 1007.95 1007.40 1007.07 1006.96 1007.06 1007.29 1007.59 1007.89 1008.12 1008.26 1008.31 1008.30 1008.24 1008.18 1008.13 1008.12 1008.13 1008.16 1008.19 1008.21 1008.21 1008.21 1008.22 1008.27 1008.37 1008.53 1008.76
1008.32 1008.11 1007.87 1007.71 1007.72 1007.95 1008.42 1009.10 1009.90 1010.70 1011.36 1011.78 1011.90 1011.69 1011.20 1010.52 1009.78 1009.10 1008.58 1008.28 1008.21 1008.35 1008.63 1008.97 1009.28 1009.50 1009.60 1009.58 1009.47 1009.28 1009.09 1008.91 1008.77 1008.68 1008.63 1008.60 1008.58 1008.55 1008.52 1008.49 1008.49 1008.52 1008.60 1008.74
1008.33 1008.07 1007.82 1007.67 1007.70 1007.98 1008.52 1009.27 1010.15 1011.03 1011.78 1012.29 1012.49 1012.37 1011.95 1011.34 1010.66 1010.02 1009.53 1009.26 1009.22 1009.38 1009.68 1010.03 1010.34 1010.56 1010.64 1010.58 1010.41 1010.17 1009.90 1009.65 1009.45 1009.31 1009.21 1009.16 1009.12 1009.07 1009.01 1008.95 1008.88 1008.83 1008.81 1008.84
1008.39 1008.10 1007.82 1007.65 1007.68 1007.96 1008.49 1009.25 1010.15 1011.07 1011.87 1012.45 1012.74 1012.71 1012.40 1011.89 1011.29 1010.72 1010.28 1010.03 1010.00 1010.15 1010.44 1010.77 1011.08 1011.28 1011.36 1011.30 1011.12 1010.87 1010.59 1010.33 1010.12 1009.97 1009.87 1009.81 1009.77 1009.71 1009.62 1009.51 1009.38 1009.25 1009.12 1009.02
1008.54 1008.21 1007.91 1007.70 1007.68 1007.90 1008.38 1009.09 1009.95 1010.86 1011.68 1012.32 1012.70 1012.79 1012.61 1012.22 1011.74 1011.26 1010.87 1010.65 1010.61 1010.73 1010.98 1011.28 1011.55 1011.74 1011.81 1011.77 1011.62 1011.40 1011.16 1010.93 1010.75 1010.62 1010.54 1010.49 1010.44 1010.37 1010.26 1010.10 1009.90 1009.68 1009.44 1009.22
1008.77 1008.44 1008.11 1007.86 1007.77 1007.90 1008.28 1008.89 1009.67 1010.52 1011.34 1012.02 1012.49 1012.70 1012.67 1012.43 1012.08 1011.71 1011.39 1011.18 1011.12 1011.20 1011.38 1011.61 1011.83 1012.00 1012.07 1012.04 1011.92 1011.75 1011.56 1011.39 1011.25 1011.16 1011.10 1011.06 1011.01 1010.92 1010.79 1010.59 1010.33 1010.03 1009.71 1009.38
1009.07 1008.76 1008.42 1008.13 1007.98 1008.01 1008.27 1008.76 1009.44 1010.22 1011.00 1011.70 1012.24 1012.57 1012.68 1012.60 1012.39 1012.12 1011.87 1011.68 1011.59 1011.61 1011.71 1011.85 1012.00 1012.11 1012.16 1012.14 1012.06 1011.93 1011.80 1011.67 1011.57 1011.50 1011.45 1011.41 1011.35 1011.26 1011.10 1010.87 1010.57 1010.22 1009.83 1009.43
1009.39 1009.14 1008.83 1008.54 1008.34 1008.30 1008.45 1008.82 1009.38 1010.06 1010.79 1011.49 1012.08 1012.50 1012.73 1012.79 1012.70 1012.52 1012.32 1012.13 1012.01 1011.95 1011.95 1012.00 1012.06 1012.11 1012.12 1012.08 1012.01 1011.91 1011.80 1011.70 1011.62 1011.55 1011.51 1011.46 1011.38 1011.27 1011.10 1010.86 1010.55 1010.18 1009.78 1009.34
1009.71 1009.56 1009.33 1009.08 1008.87 1008.79 1008.86 1009.12 1009.57 1010.15 1010.81 1011.47 1012.06 1012.53 1012.84 1012.98 1012.98 1012.87 1012.69 1012.50 1012.32 1012.17 1012.08 1012.02 1011.98 1011.95 1011.90 1011.84 1011.75 1011.65 1011.54 1011.44 1011.35 1011.27 1011.20 1011.13 1011.04 1010.92 1010.75 1010.52 1010.24 1009.89 1009.51 1009.10
1010.01 1009.99 1009.87 1009.70 1009.54 1009.45 1009.48 1009.67 1010.02 1010.49 1011.06 1011.65 1012.20 1012.66 1012.99 1013.16 1013.19 1013.10 1012.92 1012.69 1012.44 1012.21 1012.02 1011.85 1011.71 1011.60 1011.49 1011.37 1011.26 1011.13 1011.00 1010.87 1010.75 1010.64 1010.54 1010.45 1010.34 1010.22 1010.07 1009.88 1009.64 1009.36 1009.04 1008.68
1010.29 1010.40 1010.41 1010.36 1010.29 1010.25 1010.27 1010.41 1010.68 1011.05 1011.51 1011.99 1012.46 1012.85 1013.13 1013.27 1013.28 1013.15 1012.93 1012.65 1012.33 1012.01 1011.72 1011.46 1011.23 1011.04 1010.86 1010.70 1010.54 1010.37 1010.20 1010.04 1009.88 1009.73 1009.59 1009.46 1009.35 1009.24 1009.12 1008.98 1008.82 1008.63 1008.39 1008.12
1010.54 1010.78 1010.94 1011.02 1011.06 1011.09 1011.15 1011.26 1011.46 1011.74 1012.07 1012.42 1012.76 1013.03 1013.21 1013.26 1013.19 1012.99 1012.70 1012.34 1011.95 1011.56 1011.18 1010.84 1010.55 1010.29 1010.06 1009.85 1009.64 1009.44 1009.23 1009.02 1008.82 1008.62 1008.45 1008.30 1008.19 1008.09 1008.01 1007.94 1007.86 1007.75 1007.61 1007.44
1010.78 1011.13 1011.41 1011.63 1011.78 1011.89 1011.99 1012.11 1012.25 1012.43 1012.64 1012.84 1013.02 1013.14 1013.17 1013.09 1012.91 1012.62 1012.24 1011.80 1011.34 1010.88 1010.45 1010.06 1009.72 1009.42 1009.15 1008.91 1008.67 1008.44 1008.20 1007.95 1007.71 1007.48 1007.27 1007.11 1006.99 1006.91 1006.87 1006.85 1006.84 1006.81 1006.76 1006.67
1011.05 1011.46 1011.83 1012.14 1012.39 1012.57 1012.72 1012.83 1012.93 1013.02 1013.10 1013.16 1013.17 1013.12 1013.00 1012.78 1012.46 1012.07 1011.61 1011.11 1010.59 1010.09 1009.63 1009.21 1008.85 1008.53 1008.25 1007.99 1007.74 1007.49 1007.22 1006.95 1006.68 1006.42 1006.20 1006.01 1005.88 1005.81 1005.80 1005.81 1005.85 1005.89 1005.90 1005.87
1011.33 1011.77 1012.18 1012.55 1012.86 1013.09 1013.26 1013.37 1013.42 1013.43 1013.40 1013.31 1013.17 1012.97 1012.69 1012.34 1011.92 1011.43 1010.91 1010.36 1009.81 1009.29 1008.82 1008.40 1008.04 1007.73 1007.45 1007.19 1006.94 1006.68 1006.40 1006.12 1005.83 1005.55 1005.30 1005.10 1004.96 1004.88 1004.86 1004.89 1004.95 1005.01 1005.05 1005.07
1011.64 1012.06 1012.47 1012.84 1013.17 1013.42 1013.59 1013.68 1013.69 1013.62 1013.49 1013.28 1013.02 1012.69 1012.29 1011.84 1011.33 1010.78 1010.22 1009.65 1009.10 1008.59 1008.13 1007.72 1007.37 1007.07 1006.81 1006.56 1006.31 1006.05 1005.78 1005.48 1005.18 1004.89 1004.62 1004.39 1004.23 1004.12 1004.08 1004.10 1004.14 1004.20 1004.26 1004.29
1011.95 1012.31 1012.68 1013.03 1013.33 1013.56 1013.71 1013.76 1013.72 1013.59 1013.37 1013.08 1012.72 1012.29 1011.82 1011.30 1010.75 1010.18 1009.61 1009.05 1008.52 1008.03 1007.59 1007.21 1006.88 1006.59 1006.33 1006.09 1005.85 1005.59 1005.31 1005.01 1004.70 1004.39 1004.09 1003.84 1003.64 1003.49 1003.42 1003.39 1003.41 1003.45 1003.50 1003.54
1012.23 1012.52 1012.82 1013.12 1013.37 1013.55 1013.65 1013.66 1013.56 1013.37 1013.09 1012.73 1012.31 1011.84 1011.32 1010.78 1010.22 1009.66 1009.11 1008.58 1008.08 1007.62 1007.20 1006.84 1006.52 1006.24 1005.98 1005.73 1005.47 1005.21 1004.92 1004.61 1004.28 1003.95 1003.63 1003.34 1003.10 1002.92 1002.79 1002.72 1002.70 1002.72 1002.76 1002.81
1012.44 1012.66 1012.90 1013.13 1013.31 1013.44 1013.48 1013.43 1013.28 1013.03 1012.70 1012.30 1011.85 1011.35 1010.83 1010.30 1009.77 1009.24 1008.72 1008.23 1007.76 1007.32 1006.92 1006.56 1006.23 1005.93 1005.64 1005.37 1005.09 1004.80 1004.49 1004.16 1003.81 1003.46 1003.12 1002.80 1002.52 1002.29 1002.12 1002.02 1001.97 1001.97 1002.01 1002.09
1012.57 1012.74 1012.92 1013.08 1013.21 1013.27 1013.25 1013.14 1012.93 1012.64 1012.27 1011.85 1011.38 1010.89 1010.38 1009.88 1009.38 1008.89 1008.42 1007.96 1007.51 1007.09 1006.68 1006.30 1005.93 1005.58 1005.25 1004.92 1004.59 1004.26 1003.91 1003.55 1003.19 1002.82 1002.46 1002.11 1001.81 1001.55 1001.35 1001.22 1001.16 1001.16 1001.23 1001.35
1012.60 1012.75 1012.89 1013.01 1013.08 1013.09 1013.02 1012.85 1012.60 1012.27 1011.87 1011.43 1010.96 1010.48 1010.00 1009.52 1009.06 1008.61 1008.17 1007.73 1007.30 1006.86 1006.42 1005.98 1005.55 1005.13 1004.72 1004.31 1003.92 1003.52 1003.13 1002.74 1002.35 1001.97 1001.59 1001.24 1000.93 1000.66 1000.45 1000.32 1000.27 1000.30 1000.41 1000.59
Thickness
5811 5798 5793 5804 5812 5810 5810 5811 5816 5831 5843 5828 5820 5825 5838 5845 5840 5836 5837 5836 5831 5827 5831 5830 5827 5822 5816 5810 5801 5796 5790 5787 5783 5777 5773 5768 5765 5766 5765 5764 5760 5757 5753 5751
5797 5789 5803 5811 5811 5808 5805 5801 5808 5821 5832 5822 5813 5816 5832 5837 5835 5831 5829 5824 5818 5814 5812 5812 5809 5808 5803 5797 5792 5785 5780 5778 5774 5770 5766 5763 5761 5761 5761 5758 5756 5752 5749 5746
5787 5793 5810 5806 5802 5800 5801 5799 5801 5802 5812 5818 5809 5803 5817 5829 5829 5824 5819 5814 5808 5803 5796 5795 5791 5790 5789 5784 5781 5778 5773 5769 5766 5763 5759 5757 5755 5753 5751 5750 5749 5747 5745 5742
5794 5806 5805 5799 5795 5795 5785 5800 5799 5796 5788 5787 5799 5779 5804 5812 5805 5798 5791 5790 5788 5785 5785 5782 5778 5775 5772 5772 5769 5765 5763 5760 5757 5755 5751 5746 5743 5740 5742 5743 5742 5741 5739 5738
5783 5800 5799 5791 5794 5798 5792 5803 5797 5793 5785 5780 5788 5776 5791 5801 5782 5774 5771 5770 5768 5766 5771 5767 5761 5760 5761 5761 5756 5753 5751 5750 5750 5747 5744 5740 5736 5735 5737 5736 5735 5733 5733 5733
5794 5811 5809 5803 5808 5808 5803 5797 5793 5788 5771 5744 5748 5744 5757 5778 5772 5766 5761 5758 5755 5757 5757 5754 5751 5751 5749 5746 5743 5740 5738 5737 5738 5737 5735 5730 5728 5727 5725 5723 5723 5724 5726 5727
5773 5791 5805 5809 5797 5798 5792 5774 5754 5739 5713 5707 5727 5731 5742 5765 5768 5764 5757 5754 5750 5748 5745 5740 5736 5734 5732 5728 5726 5727 5726 5723 5723 5724 5722 5720 5719 5718 5716 5714 5715 5715 5716 5717
5753 5754 5787 5801 5795 5784 5785 5777 5751 5731 5728 5732 5732 5731 5739 5760 5758 5757 5753 5748 5744 5738 5733 5729 5724 5721 5717 5714 5712 5711 5709 5707 5708 5708 5707 5707 5707 5706 5705 5705 5705 5705 5706 5708
5764 5765 5799 5808 5809 5798 5780 5778 5786 5765 5762 5756 5757 5742 5739 5744 5740 5741 5740 5738 5732 5728 5723 5719 5714 5710 5707 5703 5700 5697 5694 5692 5691 5691 5691 5692 5691 5691 5691 5691 5693 5694 5695 5697
5786 5769 5790 5805 5808 5802 5795 5788 5777 5759 5738 5734 5752 5738 5721 5721 5719 5723 5726 5724 5720 5718 5714 5709 5704 5700 5696 5692 5689 5686 5682 5679 5677 5676 5674 5674 5673 5674 5675 5676 5676 5679 5681 5683
5793 5772 5778 5787 5775 5771 5777 5778 5773 5763 5754 5733 5726 5723 5736 5723 5721 5719 5717 5714 5709 5705 5701 5697 5693 5689 5685 5681 5676 5672 5668 5665 5662 5660 5658 5657 5656 5657 5657 5658 5660 5662 5665 5669
5788 5776 5763 5770 5779 5782 5776 5773 5767 5744 5739 5741 5731 5713 5733 5724 5718 5712 5706 5701 5696 5691 5687 5683 5678 5674 5669 5664 5659 5655 5651 5648 5645 5643 5641 5639 5639 5638 5638 5640 5642 5645 5648 5653
5777 5760 5744 5752 5758 5768 5770 5777 5774 5762 5747 5735 5719 5700 5719 5713 5706 5701 5694 5688 5683 5678 5673 5668 5662 5655 5649 5644 5640 5636 5633 5630 5627 5625 5623 5621 5620 5619 5620 5621 5624 5627 5631 5635
5779 5760 5748 5739 5753 5771 5771 5773 5772 5756 5735 5726 5719 5700 5701 5697 5692 5687 5682 5677 5672 5666 5660 5654 5647 5640 5634 5628 5624 5620 5617 5614 5612 5609 5606 5604 5603 5603 5603 5605 5607 5609 5613 5618
5779 5759 5761 5766 5777 5779 5774 5769 5764 5750 5737 5720 5714 5702 5694 5689 5683 5678 5673 5667 5660 5655 5650 5643 5634 5627 5620 5615 5610 5606 5602 5599 5595 5592 5590 5588 5587 5587 5588 5589 5591 5593 5596 5602
5773 5757 5756 5757 5771 5774 5765 5757 5749 5737 5727 5717 5709 5698 5694 5687 5678 5670 5662 5655 5647 5643 5637 5628 5620 5612 5605 5599 5593 5589 5584 5580 5576 5573 5571 5571 5570 5570 5571 5572 5574 5576 5579 5583
5763 5749 5741 5742 5761 5759 5735 5729 5726 5719 5715 5705 5691 5688 5684 5672 5663 5657 5651 5643 5638 5629 5619 5609 5601 5594 5587 5580 5575 5569 5565 5562 5559 5556 5555 5554 5553 5554 5555 5556 5558 5559 5560 5562
5752 5743 5738 5740 5743 5717 5715 5730 5720 5707 5705 5701 5693 5681 5670 5661 5656 5650 5643 5633 5621 5611 5602 5593 5585 5578 5572 5567 5561 5557 5553 5550 5548 5546 5544 5543 5543 5543 5543 5544 5543 5543 5544 5544
5761 5743 5733 5730 5723 5716 5711 5712 5703 5690 5685 5684 5672 5663 5657 5652 5643 5639 5633 5619 5606 5597 5589 5580 5573 5567 5561 5556 5552 5549 5546 5544 5542 5540 5539 5539 5538 5538 5537 5536 5536 5534 5534 5534
5762 5751 5736 5725 5708 5699 5695 5704 5704 5689 5674 5664 5658 5648 5642 5634 5620 5619 5615 5604 5595 5585 5576 5568 5563 5558 5554 5551 5547 5544 5541 5540 5538 5537 5537 5536 5535 5534 5533 5532 5531 5530 5529 5528
5741 5736 5728 5717 5705 5703 5699 5700 5693 5666 5657 5659 5652 5642 5632 5620 5610 5608 5603 5593 5582 5573 5566 5561 5556 5551 5548 5545 5542 5539 5537 5535 5535 5535 5534 5533 5531 5530 5530 5530 5529 5527 5525 5524
5729 5722 5712 5704 5694 5684 5695 5687 5668 5658 5659 5652 5643 5633 5623 5614 5607 5598 5589 5580 5571 5565 5560 5555 5550 5546 5543 5540 5536 5533 5531 5530 5528 5527 5527 5526 5526 5525 5527 5526 5526 5525 5523 5521
5730 5714 5705 5698 5691 5695 5692 5679 5672 5663 5651 5642 5633 5624 5615 5605 5596 5587 5579 5572 5565 5559 5554 5548 5542 5539 5535 5531 5527 5524 5523 5521 5519 5518 5518 5518 5518 5518 5519 5519 5520 5520 5520 5520
5723 5720 5708 5697 5697 5693 5685 5676 5666 5656 5644 5636 5627 5617 5606 5595 5587 5579 5572 5566 5559 5553 5546 5540 5534 5530 5526 5521 5517 5514 5512 5510 5509 5508 5509 5509 5509 5511 5513 5514 5515 5516 5518 5519
5720 5716 5701 5691 5689 5680 5676 5665 5656 5649 5640 5630 5620 5609 5599 5589 5581 5572 5565 5559 5552 5545 5539 5532 5524 5519 5516 5512 5509 5505 5503 5501 5500 5499 5499 5500 5502 5504 5507 5509 5510 5512 5514 5515
5720 5703 5686 5676 5675 5666 5660 5657 5650 5640 5631 5622 5613 5603 5594 5583 5573 5566 5558 5550 5543 5536 5529 5522 5516 5510 5507 5502 5499 5497 5494 5492 5491 5491 5491 5492 5493 5496 5500 5503 5506 5509 5510 5511